Location: Mesa Vista Observatory
(35.5777°N, 105.6987°W)
Time: 07:37:31
(UTC-07:00)

LightSail 2 - Visible Passes

Search period start: 22 November 2019 00:00
Search period end: 02 December 2019 00:00
Orbit: 698 x 729 km, 24.0° (Epoch: 21 November)

Date Brightness Start Highest point End Pass type
(mag) Time Alt. Az. Time Alt. Az. Time Alt. Az.
27 Nov 7.7 19:25:33 10° SSW 19:26:01 11° S 19:26:01 11° S visible
28 Nov 7.4 18:28:59 10° S 18:30:18 11° SSE 18:31:36 10° SSE visible
29 Nov 7.2 19:13:57 10° SSW 19:16:18 17° S 19:16:18 17° S visible
30 Nov 7.2 18:16:37 10° SSW 18:19:34 15° SSE 18:21:56 12° SE visible
30 Nov 7.9 20:00:34 10° SW 20:00:55 11° SW 20:00:55 11° SW visible
01 Dec 7.5 17:19:34 10° S 17:21:47 13° SSE 17:24:00 10° SE visible
01 Dec 6.9 19:02:51 10° SW 19:06:33 21° S 19:06:33 21° S visible
